| time (UTC) | temp C | wind direction | speed KPH | gust KPH | rain 1hr cm | rain 24hr cm | rain mn cm | humidity % | barometer mb |
| 20260503200148 | 15 | 195 | 9.7 | 22.5 | 0.00 | 0.00 | 0.00 | 35 | 1013.2 |
| 20260503195113 | 15 | 242 | 11.3 | 20.9 | 0.00 | 0.00 | 0.00 | 34 | 1013.4 |
| 20260503194104 | 16 | 242 | 6.4 | 19.3 | 0.00 | 0.00 | 0.00 | 35 | 1013.5 |
| 20260503193041 | 15 | 267 | 11.3 | 24.1 | 0.00 | 0.00 | 0.00 | 35 | 1013.8 |
| 20260503192101 | 15 | 315 | 12.9 | 29.0 | 0.00 | 0.00 | 0.00 | 36 | 1013.8 |
| 20260503191125 | 15 | 292 | 12.9 | 29.0 | 0.00 | 0.00 | 0.00 | 35 | 1013.9 |
| 20260503190136 | 15 | 279 | 6.4 | 19.3 | 0.00 | 0.00 | 0.00 | 36 | 1013.9 |
| 20260503184025 | 15 | 248 | 6.4 | 29.0 | 0.00 | 0.00 | 0.00 | 36 | 1014.2 |
| 20260503181928 | 14 | 323 | 8.0 | 20.9 | 0.00 | 0.00 | 0.00 | 39 | 1014.3 |
| 20260503180937 | 13 | 236 | 9.7 | 29.0 | 0.00 | 0.00 | 0.00 | 38 | 1014.5 |
| 20260503175945 | 13 | 252 | 8.0 | 29.0 | 0.00 | 0.00 | 0.00 | 39 | 1014.5 |
| 20260503174942 | 13 | 250 | 6.4 | 24.1 | 0.00 | 0.00 | 0.00 | 38 | 1014.6 |
| 20260503173927 | 13 | 240 | 8.0 | 20.9 | 0.00 | 0.00 | 0.00 | 39 | 1014.8 |
| 20260503172906 | 13 | 230 | 6.4 | 25.7 | 0.00 | 0.00 | 0.00 | 39 | 1014.8 |
| 20260503171835 | 13 | 273 | 9.7 | 25.7 | 0.00 | 0.00 | 0.00 | 38 | 1015.0 |
| 20260503150254 | 11 | 272 | 4.8 | 16.1 | 0.00 | 0.00 | 0.00 | 40 | 1016.2 |
| 20260503140226 | 9 | 257 | 4.8 | 16.1 | 0.00 | 0.00 | 0.00 | 49 | 1016.2 |
| 20260503130949 | 8 | 190 | 4.8 | 16.1 | 0.00 | 0.00 | 0.00 | 57 | 1016.5 |
| 20260503110646 | 0 | 296 | 0.0 | 0.0 | 0.00 | 0.00 | 0.00 | 83 | 1016.2 |
| 20260503081516 | 2 | 296 | 0.0 | 0.0 | 0.00 | 0.00 | 0.00 | 72 | 1014.8 |
| 20260503080541 | 2 | 296 | 0.0 | 0.0 | 0.00 | 0.00 | 0.00 | 71 | 1014.9 |
| 20260503072426 | 3 | 296 | 0.0 | 0.0 | 0.00 | 0.00 | 0.00 | 68 | 1014.7 |
| 20260503071435 | 3 | 298 | 0.0 | 0.0 | 0.00 | 0.00 | 0.00 | 68 | 1014.7 |
| 20260503070402 | 4 | 298 | 0.0 | 0.0 | 0.00 | 0.00 | 0.00 | 67 | 1014.6 |
| 20260503054432 | 5 | 305 | 0.0 | 4.8 | 0.00 | 0.00 | 0.00 | 64 | 1014.5 |
| 20260503053430 | 5 | 286 | 0.0 | 8.0 | 0.00 | 0.00 | 0.00 | 63 | 1014.4 |
| 20260503052430 | 6 | 285 | 1.6 | 8.0 | 0.00 | 0.00 | 0.00 | 63 | 1014.5 |
| 20260503051442 | 6 | 313 | 1.6 | 4.8 | 0.00 | 0.00 | 0.00 | 63 | 1014.4 |
| 20260503050500 | 6 | 310 | 1.6 | 11.3 | 0.00 | 0.00 | 0.00 | 61 | 1014.4 |
| 20260503045445 | 6 | 277 | 1.6 | 14.5 | 0.00 | 0.00 | 0.00 | 62 | 1014.5 |
| 20260503044450 | 6 | 266 | 1.6 | 14.5 | 0.00 | 0.00 | 0.00 | 61 | 1014.6 |
| 20260503043425 | 6 | 296 | 1.6 | 9.7 | 0.00 | 0.00 | 0.00 | 62 | 1014.7 |
| 20260503041302 | 6 | 286 | 1.6 | 9.7 | 0.00 | 0.00 | 0.00 | 63 | 1014.6 |
| 20260503040259 | 6 | 263 | 1.6 | 4.8 | 0.00 | 0.00 | 0.00 | 63 | 1014.7 |
| 20260503035248 | 6 | 279 | 1.6 | 9.7 | 0.00 | 0.00 | 0.00 | 63 | 1014.8 |
| 20260503034238 | 6 | 263 | 1.6 | 9.7 | 0.00 | 0.00 | 0.00 | 63 | 1014.7 |
| 20260503033247 | 6 | 274 | 1.6 | 8.0 | 0.00 | 0.00 | 0.00 | 63 | 1014.8 |
| 20260503031110 | 6 | 267 | 1.6 | 9.7 | 0.00 | 0.00 | 0.00 | 64 | 1014.9 |
| 20260503030105 | 6 | 284 | 1.6 | 9.7 | 0.00 | 0.00 | 0.00 | 64 | 1014.9 |
| 20260503023955 | 6 | 259 | 1.6 | 4.8 | 0.00 | 0.00 | 0.00 | 65 | 1015.2 |
| 20260503021917 | 7 | 285 | 3.2 | 11.3 | 0.00 | 0.00 | 0.00 | 65 | 1015.2 |
| 20260503020858 | 7 | 274 | 1.6 | 11.3 | 0.00 | 0.00 | 0.00 | 67 | 1015.1 |
| 20260503014759 | 7 | 263 | 1.6 | 6.4 | 0.00 | 0.00 | 0.00 | 67 | 1014.9 |
| 20260503013737 | 7 | 270 | 0.0 | 3.2 | 0.00 | 0.00 | 0.00 | 69 | 1014.9 |
| 20260503012746 | 7 | 269 | 0.0 | 0.0 | 0.00 | 0.00 | 0.00 | 68 | 1014.8 |
| 20260503011732 | 7 | 277 | 0.0 | 8.0 | 0.00 | 0.00 | 0.00 | 67 | 1014.7 |
| 20260503010750 | 7 | 273 | 0.0 | 3.2 | 0.00 | 0.00 | 0.00 | 67 | 1014.6 |
| 20260503005809 | 7 | 298 | 1.6 | 9.7 | 0.00 | 0.00 | 0.00 | 66 | 1014.5 |
| 20260503004804 | 7 | 299 | 1.6 | 9.7 | 0.00 | 0.00 | 0.00 | 65 | 1014.4 |
| 20260503003740 | 7 | 299 | 1.6 | 8.0 | 0.00 | 0.05 | 0.00 | 66 | 1014.3 |
| 20260503002805 | 7 | 285 | 1.6 | 8.0 | 0.00 | 0.05 | 0.00 | 66 | 1014.2 |
| 20260503001819 | 7 | 273 | 1.6 | 16.1 | 0.00 | 0.05 | 0.00 | 66 | 1014.1 |
| 20260503000801 | 7 | 273 | 1.6 | 16.1 | 0.00 | 0.05 | 0.00 | 66 | 1014.1 |
| 20260502235741 | 7 | 288 | 1.6 | 12.9 | 0.00 | 0.05 | 0.00 | 64 | 1014.1 |
| 20260502234751 | 7 | 296 | 3.2 | 12.9 | 0.00 | 0.08 | 0.00 | 64 | 1014.0 |
| 20260502232606 | 8 | 282 | 1.6 | 11.3 | 0.00 | 0.08 | 0.00 | 64 | 1014.0 |
| 20260502231623 | 8 | 308 | 1.6 | 11.3 | 0.00 | 0.08 | 0.00 | 64 | 1013.9 |
| 20260502230557 | 8 | 304 | 3.2 | 11.3 | 0.00 | 0.08 | 0.00 | 64 | 1013.9 |
| 20260502225557 | 8 | 322 | 3.2 | 17.7 | 0.00 | 0.08 | 0.00 | 65 | 1013.8 |
| 20260502223422 | 8 | 298 | 4.8 | 14.5 | 0.00 | 0.08 | 0.00 | 64 | 1013.7 |
| 20260502222411 | 9 | 85 | 1.6 | 8.0 | 0.00 | 0.08 | 0.00 | 63 | 1013.7 |
| 20260502221414 | 9 | 228 | 1.6 | 9.7 | 0.00 | 0.08 | 0.00 | 62 | 1013.7 |
| 20260502220425 | 8 | 288 | 1.6 | 9.7 | 0.00 | 0.08 | 0.00 | 62 | 1013.7 |
| 20260502214240 | 9 | 290 | 1.6 | 12.9 | 0.00 | 0.08 | 0.00 | 60 | 1013.6 |
| 20260502213214 | 9 | 236 | 1.6 | 8.0 | 0.00 | 0.08 | 0.00 | 60 | 1013.5 |
| 20260502212212 | 9 | 23 | 1.6 | 12.9 | 0.00 | 0.08 | 0.00 | 60 | 1013.4 |
| 20260502211158 | 9 | 268 | 1.6 | 4.8 | 0.00 | 0.08 | 0.00 | 61 | 1013.3 |
| 20260502210137 | 8 | 288 | 1.6 | 14.5 | 0.00 | 0.08 | 0.00 | 62 | 1013.3 |
| 20260502204029 | 8 | 311 | 4.8 | 17.7 | 0.00 | 0.08 | 0.00 | 64 | 1013.3 |
| 20260502203045 | 8 | 98 | 4.8 | 17.7 | 0.00 | 0.08 | 0.00 | 64 | 1013.4 |
| 20260502202023 | 9 | 274 | 6.4 | 20.9 | 0.00 | 0.08 | 0.00 | 68 | 1013.4 |
| 20260502200951 | 10 | 261 | 6.4 | 19.3 | 0.00 | 0.08 | 0.00 | 57 | 1013.3 |